Regional Weather Roundup
Issued by NWS

Home | Current Version | Previous Version | Graphics & Text | Print | Product List | Glossary Off
Versions: 1 2 3 4 5 6 7 8 9 10 11 12 13 14 15 16 17 18 19 20 21 22 23 24 25 26 27 28 29 30 31 32 33 34 35 36 37 38 39 40 41 42 43 44 45 46 47 48 49 50

000
ASUS43 KTOP 120408
RWRKS

WEATHER ROUNDUP FOR KANSAS
NATIONAL WEATHER SERVICE GOODLAND KS
1100 PM CDT FRI JUL 11 2014

NOTE:  "FAIR" INDICATES FEW OR NO CLOUDS BELOW 12,000 FEET WITH NO
SIGNIFICANT WEATHER AND/OR OBSTRUCTIONS TO VISIBILITY.

KSZ001>006-013>018-027>032-041>047-120500-
NORTHWEST KANSAS

CITY           SKY/WX    TMP DP  RH WIND       PRES   REMARKS
GOODLAND       MOCLDY    83  51  33 SW14G22   30.09R
HAYS           CLEAR     77  57  50 S12       30.03R
HILL CITY      CLEAR     83  58  42 S14G23    29.98S
RUSSELL        CLEAR     77  66  68 S14       30.01R
$$

KSZ061>065-074>080-084>089-120500-
SOUTHWEST KANSAS

CITY           SKY/WX    TMP DP  RH WIND       PRES   REMARKS
DODGE CITY     CLEAR     75  58  55 SE13      30.07R
ELKHART          N/A     76  54  46 S13         N/A
GARDEN CITY    CLEAR     75  57  53 SE10      30.06R
GREAT BEND     CLEAR     75  64  69 S10       30.03R
LIBERAL        CLEAR     81  55  41 S13       30.09R
PRATT          CLEAR     77  61  57 S7        30.08R
$$

KSZ066>073-081>083-090>101-120500-
SOUTHEAST KANSAS

CITY           SKY/WX    TMP DP  RH WIND       PRES   REMARKS
CHANUTE        CLEAR     78  70  76 S9        30.09R
COFFEYVILLE    CLEAR     79  71  76 S8        30.08R
HUTCHINSON     CLEAR     77  65  66 SE7       30.06R
MEDICINE LODGE   N/A     80  64  58 SE7       30.06R
NEWTON         CLEAR     77  63  61 S9        30.10R
PARSONS        CLEAR     79  70  74 S5        30.10R
WICHITA INTL   CLEAR     78  67  68 S10       30.06R
WICHITA JABRA  CLEAR     79  68  69 S9        30.07R
WICHITA MCCONL CLEAR     79  70  73 SE9       30.07R
WINFIELD       CLEAR     78  68  71 S9        30.08R
$$

KSZ007>012-019>026-033>040-048>060-102>105-120500-
NORTHEAST KANSAS

CITY           SKY/WX    TMP DP  RH WIND       PRES   REMARKS
CONCORDIA      CLEAR     81  64  56 S10       30.01R
EMPORIA        CLEAR     79  68  69 S13       30.06R
LAWRENCE       CLEAR     79  71  76 S7        30.04R
MANHATTAN      CLEAR     83  67  58 S9        30.03R
MARYSVILLE     CLEAR     81  70  69 S9        30.01R
OLATHE IND     CLEAR     79  70  74 S9        30.07R
OLATHE EXE     CLEAR     77  71  82 S6        30.06R
SALINA         CLEAR     80  64  58 S10       30.03R
TOPEKA BILLARD CLEAR     84  71  65 S6        30.04R
TOPEKA FORBES  CLEAR     81  70  69 S10       30.04R
$$



USA.gov is the U.S. government's official web portal to all federal, state and local government web resources and services.